DateTimeUTC,F1_A11,F1_S11,BsB_S11,BsG_S11,BsR_S11,BbsB_S11,BbsG_S11,BbsR_S11,BaB_A11,BaG_A11,BaR_A11,Tu_S11,T_S11,Uu_S11,U_S11,P_S11,T1_A11
2021-08-15T05:00:00Z,00000200,20000000,,,,,,,0000.01,0000.26,-000.07,18.8,25.2,15.8,10.7,0674.4,30.9
2021-08-15T05:01:00Z,00000200,20000000,,,,,,,0000.16,-000.28,0000.24,18.8,25.2,15.8,10.7,0674.5,30.9
2021-08-15T05:02:00Z,00000200,20000000,,,,,,,-000.21,0000.29,-000.00,18.8,25.2,15.8,10.7,0674.5,30.9
2021-08-15T05:03:00Z,00000200,60000000,,,,,,,0000.55,0000.44,0000.50,18.8,25.2,15.8,10.7,0674.5,30.9
2021-08-15T05:04:00Z,00000200,40000000,0000.21,-000.07,-000.26,0000.09,0000.12,-000.23,0000.08,-000.01,-000.12,18.9,25.1,15.8,10.8,0675.4,30.9
2021-08-15T05:05:00Z,00000200,00000000,0000.70,0000.21,0000.05,-000.31,0000.16,-000.21,0000.24,-000.13,-000.20,19.0,25.0,15.9,11.0,0675.5,30.9
2021-08-15T05:06:00Z,00000200,00000000,0000.33,-000.01,-000.06,-000.12,0000.26,0000.02,-000.18,0000.49,0000.08,19.0,25.0,16.1,11.1,0675.5,30.9
2021-08-15T05:07:00Z,00000200,00000000,-000.13,0000.14,0000.03,-000.19,0000.09,-000.17,-000.04,-000.48,0000.02,19.0,25.0,16.1,11.1,0675.5,30.9
2021-08-15T05:08:00Z,00000200,00000000,0000.79,0000.07,0000.20,0000.55,0000.19,0000.10,0000.19,0000.11,0000.07,19.0,25.0,16.1,11.1,0675.5,30.9
2021-08-15T05:09:00Z,00000200,00000000,0000.08,0000.11,0000.12,-000.44,0000.15,-000.07,0000.18,-000.30,0000.11,19.0,25.0,16.1,11.1,0675.5,30.9
2021-08-15T05:10:00Z,00000200,00000000,0000.44,0000.35,-000.18,-000.29,0000.20,-000.19,-000.25,0000.27,0000.09,19.0,25.0,16.1,11.2,0675.5,30.9
2021-08-15T05:11:00Z,00000200,00000000,0000.39,0000.34,0000.36,-000.76,0000.12,0000.44,0000.49,0000.06,-000.04,19.0,25.0,16.2,11.2,0675.5,30.9
2021-08-15T05:12:00Z,00000200,00000000,0000.49,0000.01,0000.22,0000.07,0000.05,0000.39,0000.01,0000.41,0000.05,19.0,25.0,16.2,11.2,0675.5,30.9
2021-08-15T05:13:00Z,00000200,00000000,0001.19,-000.07,0000.24,0000.01,0000.37,-000.27,-000.33,-000.35,0000.04,19.0,25.0,16.1,11.2,0675.5,30.9
2021-08-15T05:14:00Z,00000200,00000000,0000.38,0000.37,0000.30,-000.24,-000.04,0000.07,0000.30,0000.21,0000.20,19.0,25.0,16.2,11.2,0675.5,30.9
2021-08-15T05:15:00Z,00000200,00000000,0000.50,-000.19,0000.00,-000.07,0000.10,-000.20,0000.18,0000.22,0000.08,19.0,25.0,16.3,11.3,0675.5,30.9
2021-08-15T05:16:00Z,00000200,00000000,0000.10,0000.46,0000.38,-000.46,0000.27,-000.47,-000.19,0000.01,-000.22,19.0,25.0,16.2,11.2,0675.5,30.9
2021-08-15T05:17:00Z,00000200,00000000,0000.44,0000.20,-000.06,0000.20,0000.05,-000.02,-000.16,-000.19,0000.37,19.0,25.0,16.2,11.2,0675.5,30.9
2021-08-15T05:18:00Z,00000200,00000000,0000.86,0000.23,-000.06,-000.09,-000.01,0000.12,0000.45,0000.24,0000.29,19.0,25.0,16.2,11.3,0675.5,30.9
2021-08-15T05:19:00Z,00000200,00000000,0000.13,0000.60,0000.24,-000.35,-000.01,-000.14,0000.26,-000.24,-000.26,19.0,25.0,16.3,11.3,0675.5,30.9
2021-08-15T05:20:00Z,00000200,00000000,0000.81,0000.38,0000.03,-000.41,0000.16,-000.35,-000.33,0000.20,-000.00,19.0,25.0,16.2,11.3,0675.5,30.9
2021-08-15T05:21:00Z,00000200,00000000,0000.43,0000.11,0000.14,-000.36,-000.16,-000.27,0000.19,0000.08,0000.36,19.0,25.0,16.3,11.3,0675.5,30.9
2021-08-15T05:22:00Z,00000200,00000000,0000.47,0000.12,-000.15,0000.31,0000.18,-000.30,0000.00,-000.02,-000.65,19.0,25.0,16.3,11.3,0675.5,30.9
2021-08-15T05:23:00Z,00000200,00000000,0000.29,0000.33,0000.17,-000.14,0000.08,-000.13,-000.08,0000.29,0000.18,19.0,25.0,16.3,11.3,0675.5,30.9
2021-08-15T05:24:00Z,00000200,00000000,0000.75,0000.03,-000.04,-000.14,0000.10,0000.17,0000.32,0000.08,0000.47,19.0,25.0,16.2,11.2,0675.5,30.9
2021-08-15T05:25:00Z,00000200,00000000,-000.06,0000.19,0000.18,0000.03,0000.05,-000.21,-000.09,-000.23,-000.54,19.0,25.0,16.2,11.2,0675.5,30.9
2021-08-15T05:26:00Z,00000200,00000000,0000.64,0000.29,-000.11,-000.35,-000.12,-000.10,0000.06,0000.03,0000.50,19.0,25.0,16.3,11.3,0675.5,30.9
2021-08-15T05:27:00Z,00000200,00000000,0000.47,0000.41,0000.16,0000.08,0000.21,-000.10,-000.12,0000.48,0000.18,19.0,25.0,16.3,11.3,0675.4,30.9
2021-08-15T05:28:00Z,00000200,00000000,0000.85,0000.17,-000.19,-000.28,0000.07,-000.18,0000.43,-000.28,-000.34,19.0,25.0,16.3,11.3,0675.4,30.9
2021-08-15T05:29:00Z,00000200,00000000,0000.52,0000.27,0000.05,0000.20,0000.10,-000.17,-000.12,0000.18,0000.22,19.0,25.0,16.2,11.2,0675.4,30.9
2021-08-15T05:30:00Z,00000200,00000000,0000.36,0000.19,0000.09,-000.55,0000.20,0000.21,0000.17,-000.21,-000.19,19.0,25.0,16.3,11.3,0675.4,30.9
2021-08-15T05:31:00Z,00000200,00000000,0000.95,0000.11,-000.01,-000.42,0000.20,-000.20,-000.12,0000.07,0000.09,19.0,25.0,16.2,11.2,0675.4,30.9
2021-08-15T05:32:00Z,00000200,00000000,0000.69,0000.43,-000.04,0000.03,0000.08,-000.11,0000.18,0000.30,-000.02,19.0,24.9,16.3,11.3,0675.4,30.9
2021-08-15T05:33:00Z,00000200,00000000,0000.31,0000.37,0000.13,-000.61,-000.11,-000.23,0000.08,-000.05,-000.05,19.0,24.9,16.3,11.3,0675.4,30.9
2021-08-15T05:34:00Z,00000200,00000000,0000.34,0000.08,0000.31,-000.45,0000.19,0000.35,-000.04,0000.11,0000.34,19.0,25.0,16.3,11.3,0675.4,30.9
2021-08-15T05:35:00Z,00000200,00000000,0000.23,0000.32,0000.29,-000.56,-000.20,-000.25,-000.05,0000.01,-000.07,19.0,25.0,16.3,11.3,0675.4,30.9
2021-08-15T05:36:00Z,00000200,00000000,0000.24,0000.02,0000.31,-000.34,0000.16,0000.12,-000.11,0000.17,0000.21,19.0,25.0,16.3,11.3,0675.4,30.9
2021-08-15T05:37:00Z,00000200,00000000,0000.69,0000.26,0000.09,-000.04,0000.09,-000.33,0000.15,-000.26,-000.32,19.0,25.0,16.2,11.2,0675.4,30.9
2021-08-15T05:38:00Z,00000200,00000000,-000.11,0000.26,0000.44,-000.29,0000.43,0000.19,0000.06,-000.02,0000.04,19.0,25.0,16.2,11.2,0675.4,30.9
2021-08-15T05:39:00Z,00000200,00000000,0000.78,0000.23,-000.16,0000.02,-000.03,-000.12,-000.02,0000.05,0000.07,19.0,25.0,16.3,11.3,0675.4,30.9
2021-08-15T05:40:00Z,00000200,00000000,0000.72,0000.49,0000.12,0000.29,0000.57,-000.14,0000.08,0000.21,0000.08,19.0,24.9,16.3,11.3,0675.4,30.9
2021-08-15T05:41:00Z,00000200,00000000,-000.32,0000.43,0000.22,-000.34,0000.46,-000.17,0000.16,-000.04,-000.01,19.0,24.9,16.4,11.4,0675.4,30.9
2021-08-15T05:42:00Z,00000200,00000000,0000.86,0000.24,-000.11,-000.00,0000.12,-000.08,-000.06,0000.00,0000.21,19.0,24.9,16.3,11.4,0675.4,30.9
2021-08-15T05:43:00Z,00000200,00000000,0000.35,0000.69,0000.27,-000.57,0000.16,-000.03,0000.52,0000.55,-000.11,18.9,24.9,16.4,11.4,0675.5,30.9
2021-08-15T05:44:00Z,00000200,00000000,0000.72,0000.08,0000.12,-000.60,-000.03,0000.03,-000.25,0000.09,0000.27,19.0,24.9,16.4,11.4,0675.5,30.9
2021-08-15T05:45:00Z,00000200,00000000,0000.61,0000.26,0000.09,-000.14,0000.25,0000.19,0000.37,-000.07,-000.11,19.0,24.9,16.4,11.4,0675.4,30.9
2021-08-15T05:46:00Z,00000200,00000000,0000.38,0000.09,0000.04,-000.33,0000.33,-000.01,0000.49,0000.03,0000.27,19.0,24.9,16.5,11.5,0675.4,30.9
2021-08-15T05:47:00Z,00000200,00000000,0000.39,0000.40,0000.00,0000.34,0000.07,-000.19,-000.48,0000.36,0000.20,19.0,24.9,16.5,11.4,0675.4,30.9
2021-08-15T05:48:00Z,00000200,00000000,0001.15,0000.43,0000.39,-000.16,-000.13,0000.05,0000.35,-000.10,0000.05,19.0,24.9,16.5,11.5,0675.4,30.9
2021-08-15T05:49:00Z,00000200,00000000,0001.16,0000.62,0000.00,0000.35,0000.12,-000.23,0000.01,0000.16,0000.07,19.0,24.9,16.5,11.5,0675.4,30.9
2021-08-15T05:50:00Z,00000200,00000000,0001.13,0000.60,0000.21,-000.44,0000.12,-000.22,0000.18,-000.07,-000.01,19.0,24.9,16.6,11.5,0675.4,30.9
2021-08-15T05:51:00Z,00000200,00000000,0000.70,0000.58,0000.15,-001.06,0000.28,0000.10,-000.13,0000.38,0000.16,19.0,24.9,16.6,11.5,0675.4,30.9
2021-08-15T05:52:00Z,00000200,00000000,0000.63,0000.33,0000.17,0000.38,0000.34,-000.07,-000.07,-000.10,-000.03,19.0,24.9,16.6,11.5,0675.4,30.9
2021-08-15T05:53:00Z,00000200,00000000,0000.49,0000.16,0000.40,-000.07,0000.19,-000.08,0000.29,-000.03,0000.26,19.0,24.9,16.7,11.6,0675.4,30.9
2021-08-15T05:54:00Z,00000200,00000000,0000.90,0000.01,0000.23,-000.36,0000.38,0000.07,0000.29,-000.11,-000.15,19.0,24.9,16.6,11.5,0675.4,30.9
2021-08-15T05:55:00Z,00000200,00000000,0000.62,0000.41,0000.09,-000.39,0000.43,-000.00,-000.16,0000.24,-000.12,19.0,24.9,16.6,11.5,0675.4,30.9
2021-08-15T05:56:00Z,00000200,00000000,0000.08,0000.58,0000.14,0000.19,0000.43,-000.16,-000.01,-000.19,0000.15,19.0,24.9,16.6,11.6,0675.4,30.9
2021-08-15T05:57:00Z,00000200,40000000,,,,,,,0000.08,-000.38,0000.05,19.0,24.9,16.3,11.4,0675.4,30.9
2021-08-15T05:58:00Z,00000200,60000000,,,,,,,-000.24,0000.41,-000.27,18.8,25.0,16.6,11.3,0674.4,30.9
2021-08-15T05:59:00Z,00000200,20000000,,,,,,,0000.54,0000.12,0000.09,18.8,25.1,16.6,11.3,0674.4,30.9
